Regional Weather Roundup
Issued by NWS Sterling, VA

Home | Current Version | Previous Version | Text Only | Print | Product List | Glossary On
Versions: 1 2 3 4 5 6 7 8 9 10 11 12 13 14 15 16 17 18 19 20 21 22 23 24 25 26 27 28 29 30 31 32 33 34 35 36 37 38 39 40 41 42 43 44 45 46 47 48 49 50
000
ASUS41 KLWX 241611
RWRLWX

REGIONAL WEATHER ROUNDUP
NATIONAL WEATHER SERVICE BALTIMORE MD/WASHINGTON DC
1200 PM EDT TUE APR 24 2018

Note: "FAIR" indicates few or no clouds below 12,000 feet
with no significant weather and/or obstructions to visibility.
 TC=TEMPERATURE CELSIUS

 * =Non NWS site. Station does not report precipitation (e.g. rain,
    snow, etc.), thunder, or fog.

DCZ001-MDZ009-015-VAZ040>042-051-053>054-241700-
WASHINGTON METRO

CITY           SKY/WX    TMP DP  RH WIND       PRES   REMARKS
WASHINGTON NAT CLOUDY    62  47  57 SE17G32   30.23F
DULLES         CLOUDY    60  47  61 E12G22    30.22F
ANDREWS AFB    FAIR      61  47  59 E12G25    30.22F
FT BELVOIR     CLOUDY    62  46  56 SE13G26   30.22
QUANTICO       LGT RAIN  61  51  70 SE18G26   30.22F
COLLEGE PARK*  FAIR      61  46  58 SE8       30.24F
LEESBURG*      CLOUDY    61  48  63 SE12G22   30.23F
MANASSAS*      LGT RAIN  59  49  69 SE9G18    30.21F
GAITHERSBURG*  PTSUNNY   61  46  57 E13G18    30.24F

$$

MDZ006>007-011-014-241700-
BALTIMORE METRO

CITY           SKY/WX    TMP DP  RH WIND       PRES   REMARKS
BWI AIRPORT    CLOUDY    62  47  57 SE18G25   30.25F
MD SCIENCE CTR   N/A     63  47  55 MISG      30.27F
MARTIN STATE   CLOUDY    64  50  59 E12       30.28F
ANNAPOLIS      PTSUNNY   61  53  75 SE13      30.25F
FORT MEADE*    FAIR      61  46  59 E14       30.27F

$$

MDZ012-015-019>023-241700-
MARYLAND EASTERN SHORE

CITY           SKY/WX    TMP DP  RH WIND       PRES   REMARKS
OCEAN CITY     FAIR      55  50  83 E13       30.28F
SALISBURY      FAIR      62  48  60 SE16G23   30.25F
BAY BRIDGE AP* FAIR      63  48  59 SE13G24   30.25F
CAMBRIDGE*     SUNNY     63  46  55 E15G24    30.24F
EASTON*        CLOUDY    64  46  52 SE10G21   30.29F

$$

MDZ017>025-241700-
SOUTHERN MARYLAND

CITY           SKY/WX    TMP DP  RH WIND       PRES   REMARKS
PATUXENT RIVER CLOUDY    61  51  70 E12       30.22F
ST INIGOES     PTSUNNY   61  49  64 E14G26    30.21F
LEONARDTOWN*   PTSUNNY   61  46  59 E13G18    30.24F

$$

MDZ003>005-241700-
NORTH CENTRAL MARYLAND

CITY           SKY/WX    TMP DP  RH WIND       PRES   REMARKS
FREDERICK*     CLOUDY    61  43  51 SE12G23   30.27F
HAGERSTOWN APT FAIR      60  44  55 SE15G22   30.23F
WESTMINSTER*   FAIR      63  46  55 SE13G23   30.25F

$$

MDZ501>502-241700-
WESTERN MARYLAND

CITY           SKY/WX    TMP DP  RH WIND       PRES   REMARKS
OAKLAND*       CLOUDY    41  41 100 SE22G33   30.11F WCI  31
CUMBERLAND*    PTSUNNY   50  48  93 NW5       30.25F

$$

VAZ025>031-241700-
SHENANDOAH VALLEY

CITY           SKY/WX    TMP DP  RH WIND       PRES   REMARKS
WINCHESTER*    DRIZZLE   50  46  87 E3        30.22F
FRONT ROYAL*   CLOUDY    50  50 100 NE3       30.19F
LURAY*         DRIZZLE   52  50  93 NE7       30.17F
NEW MARKET*    CLOUDY    52  49  90 N9        30.16F
STAUNTON*      DRIZZLE   52  49  89 E6        30.15F
WAYNESBORO*    CLOUDY    51  50  97 E9G21     30.12F

$$

WVZ021-048>050-054>055-241700-
EASTERN WEST VIRGINIA PANHANDLE

CITY           SKY/WX    TMP DP  RH WIND       PRES   REMARKS
MARTINSBURG    LGT RAIN  55  48  77 SE5       30.21F
PETERSBURG*    LGT RAIN  49  47  93 NW6       30.16F

$$

VAZ036>039-050-241700-
CENTRAL FOOTHILLS

CITY           SKY/WX    TMP DP  RH WIND       PRES   REMARKS
CHARLOTTESVILL LGT RAIN  54  52  93 NE10      30.15F FOG
CULPEPER*      LGT RAIN  56  51  86 E6        30.21F
ORANGE*        LGT RAIN  54  52  94 NE7G16    30.18F
GORDONSVILLE*  CLOUDY    54  54 100 E10G16    30.16F
WARRENTON*     LGT RAIN  57  50  78 E9        30.20F

$$

VAZ055>057-241700-
NORTH AND CENTRAL PIEDMONT

CITY           SKY/WX    TMP DP  RH WIND       PRES   REMARKS
FREDERICKSBRG* LGT RAIN  56  54  92 E6        30.19F
STAFFORD*      LGT RAIN  57  55  91 E12G18    30.24F

$$

NCZ024-NYZ072-PAZ021-071-VAZ022-071-241700-
OTHER REGIONAL OBSERVATIONS

CITY           SKY/WX    TMP DP  RH WIND       PRES   REMARKS
NEW YORK CITY  FAIR      64  37  36 VRB5      30.40F
PHILADELPHIA   CLOUDY    63  43  48 SE10G21   30.33F
PITTSBURGH     LGT RAIN  50  48  93 E8        30.11F
ROANOKE        LGT RAIN  53  51  93 VRB6      30.05F FOG
RICHMOND       LGT RAIN  57  57 100 E17       30.15F FOG
RALEIGH        CLOUDY    59  58  96 E15       29.97F

$$

ANZ530>537-241700-
MARINE OBSERVATIONS

STATION/POSITION TIME  TEMP    WIND        PRES
                       AIR SEA DIR/SP/G
                 (UTC) (F)     (DEG/KT/KT) (MB)
THOMAS PT LIGHT  1600   59 53  120/ 17/ 20 1024.8
BALT KEY BRIDGE  1548   58     120/ 12/ 15 1024.9F
COVE POINT       1548   58     140/ 13/ 20 1024.2F
LEWISETTA        1548   55 56  110/  9/ 11 1023.1F
SOLOMONS ISLAND  1548   58 53  110/ 15/ 17 1023.1F
PINEY POINT      1548          140/ 18/ 20   N/A

$$




USA.gov is the U.S. government's official web portal to all federal, state and local government web resources and services.